Location: Newark
(50.0306°N, 2.3272°E)
Time: 20:06:33
(UTC+00:00)

A-11 Canister half - Pass Details

Date: 12 December 2019
Orbit: 1525 x 1684 km, 47.3° (Epoch: 18 January)

Event Time Altitude Azimuth Distance (km) Brightness Sun altitude
Rises 12:34:53 0° 289° (WNW) 4,927 11.6 16.0°
Reaches altitude 10° 12:38:49 10° 277° (W) 3,920 11.3 15.9°
Maximum altitude 12:46:15 24° 229° (SW) 2,896 11.6 15.6°
Drops below altitude 10° 12:53:31 10° 180° (S) 3,822 12.9 15.3°
Sets 12:57:20 0° 167° (SSE) 4,778 12.7 15.1°
